Year,Month,Day,Hour,Minute,Value (Times are PST for temperature in C)
2008,10,01,00,00,10.60
2008,10,01,00,01,10.50
2008,10,01,00,02,10.50
2008,10,01,00,03,10.50
2008,10,01,00,04,10.40
2008,10,01,00,05,10.40
2008,10,01,00,06,10.40
2008,10,01,00,07,10.30
2008,10,01,00,08,10.30
2008,10,01,00,09,10.30
2008,10,01,00,10,10.30
2008,10,01,00,11,10.30
2008,10,01,00,12,10.30
2008,10,01,00,13,10.20
2008,10,01,00,14,10.20
2008,10,01,00,15,10.20
2008,10,01,00,16,10.20
2008,10,01,00,17,10.20
2008,10,01,00,18,10.20
2008,10,01,00,19,10.20
2008,10,01,00,20,10.20
2008,10,01,00,21,10.20
2008,10,01,00,22,10.20
2008,10,01,00,23,10.10
2008,10,01,00,24,10.10
2008,10,01,00,25,10.10
2008,10,01,00,26,10.10
2008,10,01,00,27,10.10
2008,10,01,00,28,10.10
2008,10,01,00,29,10.00
2008,10,01,00,30,10.00
2008,10,01,00,31,10.00
2008,10,01,00,32,10.00
2008,10,01,00,33,9.90
2008,10,01,00,34,9.90
2008,10,01,00,35,9.90
2008,10,01,00,36,9.90
2008,10,01,00,37,9.90
2008,10,01,00,38,9.80
2008,10,01,00,39,9.80
2008,10,01,00,40,9.80
2008,10,01,00,41,9.80
2008,10,01,00,42,9.80
2008,10,01,00,43,9.80
2008,10,01,00,44,9.70
2008,10,01,00,45,9.70
2008,10,01,00,46,9.70
2008,10,01,00,47,9.70
2008,10,01,00,48,9.70
2008,10,01,00,49,9.70
2008,10,01,00,50,9.70
2008,10,01,00,51,9.70
2008,10,01,00,52,9.70
2008,10,01,00,53,9.70
2008,10,01,00,54,9.60
2008,10,01,00,55,9.60
2008,10,01,00,56,9.60
2008,10,01,00,57,9.60
2008,10,01,00,58,9.60
2008,10,01,00,59,9.60
2008,10,01,01,00,9.60
2008,10,01,01,01,9.60
2008,10,01,01,02,9.60
2008,10,01,01,03,9.60
2008,10,01,01,04,9.50
2008,10,01,01,05,9.50
2008,10,01,01,06,9.50
2008,10,01,01,07,9.50
2008,10,01,01,08,9.50
2008,10,01,01,09,9.40
2008,10,01,01,10,9.40
2008,10,01,01,11,9.40
2008,10,01,01,12,9.40
2008,10,01,01,13,9.30
2008,10,01,01,14,9.30
2008,10,01,01,15,9.30
2008,10,01,01,16,9.30
2008,10,01,01,17,9.30
2008,10,01,01,18,9.30
2008,10,01,01,19,9.30
2008,10,01,01,20,9.30
2008,10,01,01,21,9.30
2008,10,01,01,22,9.30
2008,10,01,01,23,9.20
2008,10,01,01,24,9.20
2008,10,01,01,25,9.20
2008,10,01,01,26,9.20
2008,10,01,01,27,9.20
2008,10,01,01,28,9.20
2008,10,01,01,29,9.20
2008,10,01,01,30,9.20
2008,10,01,01,31,9.20
2008,10,01,01,32,9.20
2008,10,01,01,33,9.10
2008,10,01,01,34,9.10
2008,10,01,01,35,9.10
2008,10,01,01,36,9.10
2008,10,01,01,37,9.10
2008,10,01,01,38,9.10
2008,10,01,01,39,9.10
2008,10,01,01,40,9.10
2008,10,01,01,41,9.10
2008,10,01,01,42,9.10
2008,10,01,01,43,9.00
2008,10,01,01,44,9.00
2008,10,01,01,45,9.00
2008,10,01,01,46,9.00
2008,10,01,01,47,9.00
2008,10,01,01,48,9.00
2008,10,01,01,49,8.90
2008,10,01,01,50,8.90
2008,10,01,01,51,8.90
2008,10,01,01,52,8.90
2008,10,01,01,53,8.90
2008,10,01,01,54,8.90
2008,10,01,01,55,8.90
2008,10,01,01,56,8.90
2008,10,01,01,57,8.80
2008,10,01,01,58,8.80
2008,10,01,01,59,8.80
2008,10,01,02,00,8.80
2008,10,01,02,01,8.80
2008,10,01,02,02,8.80
2008,10,01,02,03,8.80
2008,10,01,02,04,8.80
2008,10,01,02,05,8.70
2008,10,01,02,06,8.70
2008,10,01,02,07,8.70
2008,10,01,02,08,8.70
2008,10,01,02,09,8.70
2008,10,01,02,10,8.70
2008,10,01,02,11,8.70
2008,10,01,02,12,8.70
2008,10,01,02,13,8.70
2008,10,01,02,14,8.70
2008,10,01,02,15,8.70
2008,10,01,02,16,8.70
2008,10,01,02,17,8.70
2008,10,01,02,18,8.70
2008,10,01,02,19,8.60
2008,10,01,02,20,8.60
2008,10,01,02,21,8.60
2008,10,01,02,22,8.60
2008,10,01,02,23,8.60
2008,10,01,02,24,8.60
2008,10,01,02,25,8.60
2008,10,01,02,26,8.60
2008,10,01,02,27,8.50
2008,10,01,02,28,8.50
2008,10,01,02,29,8.50
2008,10,01,02,30,8.50
2008,10,01,02,31,8.50
2008,10,01,02,32,8.40
2008,10,01,02,33,8.40
2008,10,01,02,34,8.40
2008,10,01,02,35,8.40
2008,10,01,02,36,8.40
2008,10,01,02,37,8.40
2008,10,01,02,38,8.40
2008,10,01,02,39,8.40
2008,10,01,02,40,8.40
2008,10,01,02,41,8.40
2008,10,01,02,42,8.40
2008,10,01,02,43,8.40
2008,10,01,02,44,8.40
2008,10,01,02,45,8.40
2008,10,01,02,46,8.40
2008,10,01,02,47,8.30
2008,10,01,02,48,8.30
2008,10,01,02,49,8.30
2008,10,01,02,50,8.30
2008,10,01,02,51,8.30
2008,10,01,02,52,8.30
2008,10,01,02,53,8.30
2008,10,01,02,54,8.30
2008,10,01,02,55,8.30
2008,10,01,02,56,8.30
2008,10,01,02,57,8.30
2008,10,01,02,58,8.30
2008,10,01,02,59,8.30
2008,10,01,03,00,8.30
2008,10,01,03,01,8.40
2008,10,01,03,02,8.40
2008,10,01,03,03,8.30
2008,10,01,03,04,8.30
2008,10,01,03,05,8.30
2008,10,01,03,06,8.30
2008,10,01,03,07,8.30
2008,10,01,03,08,8.30
2008,10,01,03,09,8.30
2008,10,01,03,10,8.30
2008,10,01,03,11,8.30
2008,10,01,03,12,8.30
2008,10,01,03,13,8.30
2008,10,01,03,14,8.30
2008,10,01,03,15,8.30
2008,10,01,03,16,8.30
2008,10,01,03,17,8.30
2008,10,01,03,18,8.30
2008,10,01,03,19,8.30
2008,10,01,03,20,8.30
2008,10,01,03,21,8.30
2008,10,01,03,22,8.30
2008,10,01,03,23,8.30
2008,10,01,03,24,8.30
2008,10,01,03,25,8.30
2008,10,01,03,26,8.20
2008,10,01,03,27,8.20
2008,10,01,03,28,8.20
2008,10,01,03,29,8.20
2008,10,01,03,30,8.20
2008,10,01,03,31,8.20
2008,10,01,03,32,8.20
2008,10,01,03,33,8.20
2008,10,01,03,34,8.20
2008,10,01,03,35,8.20
2008,10,01,03,36,8.20
2008,10,01,03,37,8.20
2008,10,01,03,38,8.20
2008,10,01,03,39,8.20
2008,10,01,03,40,8.10
2008,10,01,03,41,8.10
2008,10,01,03,42,8.10
2008,10,01,03,43,8.10
2008,10,01,03,44,8.10
2008,10,01,03,45,8.10
2008,10,01,03,46,8.10
2008,10,01,03,47,8.10
2008,10,01,03,48,8.10
2008,10,01,03,49,8.10
2008,10,01,03,50,8.10
2008,10,01,03,51,8.10
2008,10,01,03,52,8.10
2008,10,01,03,53,8.10
2008,10,01,03,54,8.10
2008,10,01,03,55,8.10
2008,10,01,03,56,8.00
2008,10,01,03,57,8.00
2008,10,01,03,58,8.00
2008,10,01,03,59,8.00
2008,10,01,04,00,8.00
2008,10,01,04,01,7.90
2008,10,01,04,02,7.90
2008,10,01,04,03,7.90
2008,10,01,04,04,7.90
2008,10,01,04,17,7.80
2008,10,01,04,33,7.70
2008,10,01,04,54,7.50
2008,10,01,05,09,7.40
2008,10,01,05,25,7.30
2008,10,01,05,41,7.30
2008,10,01,06,03,7.30
2008,10,01,06,17,7.20
2008,10,01,06,32,7.20
2008,10,01,06,48,7.30
2008,10,01,07,04,7.40
2008,10,01,07,21,7.40
2008,10,01,07,41,7.70
2008,10,01,08,00,7.80
2008,10,01,08,21,8.20
2008,10,01,08,40,9.00
2008,10,01,08,58,10.00
2008,10,01,09,13,10.80
2008,10,01,09,33,12.20
2008,10,01,09,53,14.10
2008,10,01,10,11,17.50
2008,10,01,10,29,19.20
2008,10,01,10,51,18.50
2008,10,01,11,01,18.80
2008,10,01,11,02,18.80
2008,10,01,11,22,19.60
2008,10,01,11,38,18.40
2008,10,01,11,50,19.10
2008,10,01,12,02,20.10
2008,10,01,12,04,20.30
2008,10,01,12,05,20.30
2008,10,01,12,06,20.40
2008,10,01,12,13,20.60
2008,10,01,12,35,19.40
2008,10,01,12,39,19.20
2008,10,01,12,58,17.80
2008,10,01,13,17,17.50
2008,10,01,13,34,17.00
2008,10,01,13,52,17.60
2008,10,01,14,14,17.80
2008,10,01,14,31,18.20
2008,10,01,14,51,17.80
2008,10,01,14,52,17.80
2008,10,01,15,10,17.50
2008,10,01,15,28,17.80
2008,10,01,15,43,17.80
2008,10,01,16,03,17.90
2008,10,01,16,15,18.00
2008,10,01,16,27,17.70
2008,10,01,16,28,17.70
2008,10,01,16,29,17.70
2008,10,01,16,30,17.70
2008,10,01,16,31,17.70
2008,10,01,16,32,17.70
2008,10,01,16,33,17.70
2008,10,01,16,34,17.70
2008,10,01,16,35,17.60
2008,10,01,16,36,17.60
2008,10,01,16,37,17.60
2008,10,01,16,38,17.60
2008,10,01,16,39,17.60
2008,10,01,16,40,17.60
2008,10,01,16,41,17.50
2008,10,01,16,42,17.50
2008,10,01,16,43,17.50
2008,10,01,16,44,17.50
2008,10,01,16,45,17.50
2008,10,01,16,46,17.50
2008,10,01,16,47,17.40
2008,10,01,16,48,17.40
2008,10,01,16,49,17.40
2008,10,01,16,50,17.30
2008,10,01,16,51,17.30
2008,10,01,16,52,17.30
2008,10,01,16,53,17.30
2008,10,01,16,54,17.30
2008,10,01,16,55,17.30
2008,10,01,16,56,17.30
2008,10,01,16,57,17.30
2008,10,01,16,58,17.30
2008,10,01,16,59,17.30
2008,10,01,17,00,17.30
2008,10,01,17,01,17.30
2008,10,01,17,02,17.30
2008,10,01,17,03,17.30
2008,10,01,17,04,17.30
2008,10,01,17,05,17.20
2008,10,01,17,06,17.20
2008,10,01,17,07,17.20
2008,10,01,17,08,17.20
2008,10,01,17,09,17.20
2008,10,01,17,10,17.20
2008,10,01,17,11,17.20
2008,10,01,17,12,17.20
2008,10,01,17,13,17.20
2008,10,01,17,14,17.20
2008,10,01,17,15,17.20
2008,10,01,17,16,17.10
2008,10,01,17,17,17.10
2008,10,01,17,18,17.10
2008,10,01,17,19,17.00
2008,10,01,17,20,17.00
2008,10,01,17,21,16.90
2008,10,01,17,22,16.90
2008,10,01,17,23,16.80
2008,10,01,17,24,16.80
2008,10,01,17,25,16.80
2008,10,01,17,26,16.80
2008,10,01,17,27,16.80
2008,10,01,17,28,16.80
2008,10,01,17,29,16.80
2008,10,01,17,30,16.80
2008,10,01,17,31,16.80
2008,10,01,17,32,16.80
2008,10,01,17,33,16.80
2008,10,01,17,34,16.80
2008,10,01,17,35,16.80
2008,10,01,17,36,16.80
2008,10,01,17,37,16.80
2008,10,01,17,38,16.80
2008,10,01,17,39,16.80
2008,10,01,17,40,16.80
2008,10,01,17,41,16.80
2008,10,01,17,42,16.80
2008,10,01,17,43,16.80
2008,10,01,17,44,16.70
2008,10,01,17,45,16.70
2008,10,01,17,46,16.70
2008,10,01,17,47,16.70
2008,10,01,17,48,16.60
2008,10,01,17,49,16.60
2008,10,01,17,50,16.60
2008,10,01,17,51,16.50
2008,10,01,17,52,16.50
2008,10,01,17,53,16.50
2008,10,01,17,54,16.40
2008,10,01,17,55,16.40
2008,10,01,17,56,16.30
2008,10,01,17,57,16.30
2008,10,01,17,58,16.30
2008,10,01,17,59,16.30
2008,10,01,18,00,16.20
2008,10,01,18,01,16.20
2008,10,01,18,02,16.20
2008,10,01,18,03,16.20
2008,10,01,18,04,16.20
2008,10,01,18,05,16.20
2008,10,01,18,06,16.10
2008,10,01,18,07,16.10
2008,10,01,18,08,16.10
2008,10,01,18,09,16.10
2008,10,01,18,10,16.10
2008,10,01,18,11,16.10
2008,10,01,18,12,16.00
2008,10,01,18,13,16.00
2008,10,01,18,14,15.90
2008,10,01,18,15,15.90
2008,10,01,18,16,15.80
2008,10,01,18,17,15.80
2008,10,01,18,18,15.80
2008,10,01,18,19,15.80
2008,10,01,18,20,15.70
2008,10,01,18,21,15.70
2008,10,01,18,22,15.70
2008,10,01,18,23,15.70
2008,10,01,18,24,15.70
2008,10,01,18,25,15.60
2008,10,01,18,26,15.60
2008,10,01,18,27,15.60
2008,10,01,18,28,15.50
2008,10,01,18,29,15.50
2008,10,01,18,30,15.40
2008,10,01,18,31,15.40
2008,10,01,18,32,15.40
2008,10,01,18,33,15.30
2008,10,01,18,34,15.30
2008,10,01,18,35,15.30
2008,10,01,18,36,15.20
2008,10,01,18,37,15.20
2008,10,01,18,38,15.10
2008,10,01,18,39,15.00
2008,10,01,18,40,15.00
2008,10,01,18,41,15.00
2008,10,01,18,42,15.00
2008,10,01,18,43,15.00
2008,10,01,18,44,15.00
2008,10,01,18,45,15.00
2008,10,01,18,46,15.00
2008,10,01,18,47,15.00
2008,10,01,18,48,15.00
2008,10,01,18,49,15.00
2008,10,01,18,50,14.90
2008,10,01,18,51,14.90
2008,10,01,18,52,14.80
2008,10,01,18,53,14.80
2008,10,01,18,54,14.70
2008,10,01,18,55,14.70
2008,10,01,18,56,14.60
2008,10,01,18,57,14.60
2008,10,01,18,58,14.50
2008,10,01,18,59,14.50
2008,10,01,19,00,14.40
2008,10,01,19,01,14.40
2008,10,01,19,02,14.40
2008,10,01,19,03,14.30
2008,10,01,19,04,14.30
2008,10,01,19,05,14.20
2008,10,01,19,06,14.20
2008,10,01,19,07,14.20
2008,10,01,19,08,14.20
2008,10,01,19,09,14.10
2008,10,01,19,10,14.10
2008,10,01,19,11,14.10
2008,10,01,19,12,14.10
2008,10,01,19,13,14.00
2008,10,01,19,14,14.00
2008,10,01,19,15,14.00
2008,10,01,19,16,13.90
2008,10,01,19,17,13.90
2008,10,01,19,18,13.90
2008,10,01,19,19,13.80
2008,10,01,19,20,13.80
2008,10,01,19,21,13.80
2008,10,01,19,22,13.80
2008,10,01,19,23,13.70
2008,10,01,19,24,13.70
2008,10,01,19,25,13.70
2008,10,01,19,26,13.60
2008,10,01,19,27,13.60
2008,10,01,19,28,13.50
2008,10,01,19,29,13.50
2008,10,01,19,30,13.40
2008,10,01,19,31,13.40
2008,10,01,19,32,13.40
2008,10,01,19,33,13.30
2008,10,01,19,34,13.30
2008,10,01,19,35,13.30
2008,10,01,19,36,13.30
2008,10,01,19,37,13.20
2008,10,01,19,38,13.20
2008,10,01,19,39,13.20
2008,10,01,19,40,13.10
2008,10,01,19,41,13.10
2008,10,01,19,42,13.10
2008,10,01,19,43,13.10
2008,10,01,19,44,13.00
2008,10,01,19,45,13.00
2008,10,01,19,46,13.00
2008,10,01,19,47,12.90
2008,10,01,19,48,12.90
2008,10,01,19,49,12.90
2008,10,01,19,50,12.90
2008,10,01,19,51,12.90
2008,10,01,19,52,12.90
2008,10,01,19,53,12.90
2008,10,01,19,54,12.80
2008,10,01,19,55,12.80
2008,10,01,19,56,12.80
2008,10,01,19,57,12.80
2008,10,01,19,58,12.80
2008,10,01,19,59,12.80
2008,10,01,20,00,12.80
2008,10,01,20,01,12.80
2008,10,01,20,02,12.80
2008,10,01,20,03,12.80
2008,10,01,20,04,12.80
2008,10,01,20,05,12.80
2008,10,01,20,06,12.80
2008,10,01,20,07,12.80
2008,10,01,20,08,12.80
2008,10,01,20,09,12.80
2008,10,01,20,10,12.80
2008,10,01,20,11,12.80
2008,10,01,20,12,12.80
2008,10,01,20,13,12.80
2008,10,01,20,14,12.80
2008,10,01,20,15,12.80
2008,10,01,20,16,12.80
2008,10,01,20,17,12.70
2008,10,01,20,18,12.70
2008,10,01,20,19,12.70
2008,10,01,20,20,12.70
2008,10,01,20,21,12.70
2008,10,01,20,22,12.70
2008,10,01,20,23,12.70
2008,10,01,20,24,12.70
2008,10,01,20,25,12.70
2008,10,01,20,26,12.70
2008,10,01,20,27,12.70
2008,10,01,20,28,12.70
2008,10,01,20,29,12.60
2008,10,01,20,30,12.60
2008,10,01,20,31,12.60
2008,10,01,20,32,12.60
2008,10,01,20,33,12.60
2008,10,01,20,34,12.50
2008,10,01,20,35,12.50
2008,10,01,20,36,12.50
2008,10,01,20,37,12.50
2008,10,01,20,38,12.50
2008,10,01,20,39,12.40
2008,10,01,20,40,12.40
2008,10,01,20,41,12.40
2008,10,01,20,42,12.40
2008,10,01,20,43,12.40
2008,10,01,20,44,12.40
2008,10,01,20,45,12.40
2008,10,01,20,46,12.40
2008,10,01,20,47,12.40
2008,10,01,20,48,12.40
2008,10,01,20,49,12.40
2008,10,01,20,50,12.40
2008,10,01,20,51,12.40
2008,10,01,20,52,12.40
2008,10,01,20,53,12.40
2008,10,01,20,54,12.40
2008,10,01,20,55,12.40
2008,10,01,20,56,12.40
2008,10,01,20,57,12.40
2008,10,01,20,58,12.30
2008,10,01,20,59,12.30
2008,10,01,21,00,12.30
2008,10,01,21,01,12.30
2008,10,01,21,02,12.30
2008,10,01,21,03,12.30
2008,10,01,21,04,12.30
2008,10,01,21,05,12.30
2008,10,01,21,06,12.30
2008,10,01,21,07,12.30
2008,10,01,21,08,12.30
2008,10,01,21,09,12.30
2008,10,01,21,10,12.30
2008,10,01,21,11,12.30
2008,10,01,21,12,12.30
2008,10,01,21,13,12.30
2008,10,01,21,14,12.30
2008,10,01,21,15,12.30
2008,10,01,21,16,12.30
2008,10,01,21,17,12.30
2008,10,01,21,18,12.30
2008,10,01,21,19,12.30
2008,10,01,21,20,12.30
2008,10,01,21,21,12.30
2008,10,01,21,22,12.30
2008,10,01,21,23,12.20
2008,10,01,21,24,12.20
2008,10,01,21,25,12.20
2008,10,01,21,26,12.20
2008,10,01,21,27,12.20
2008,10,01,21,28,12.20
2008,10,01,21,29,12.20
2008,10,01,21,30,12.20
2008,10,01,21,31,12.20
2008,10,01,21,32,12.20
2008,10,01,21,33,12.20
2008,10,01,21,34,12.20
2008,10,01,21,35,12.20
2008,10,01,21,36,12.10
2008,10,01,21,37,12.10
2008,10,01,21,38,12.10
2008,10,01,21,39,12.10
2008,10,01,21,40,12.10
2008,10,01,21,41,12.10
2008,10,01,21,42,12.10
2008,10,01,21,43,12.10
2008,10,01,21,44,12.10
2008,10,01,21,45,12.10
2008,10,01,21,46,12.00
2008,10,01,21,47,12.00
2008,10,01,21,48,12.00
2008,10,01,21,49,12.00
2008,10,01,21,50,12.00
2008,10,01,21,51,11.90
2008,10,01,21,52,11.90
2008,10,01,21,53,11.90
2008,10,01,21,54,11.90
2008,10,01,21,55,11.90
2008,10,01,21,56,11.90
2008,10,01,21,57,11.90
2008,10,01,21,58,11.80
2008,10,01,21,59,11.80
2008,10,01,22,00,11.80
2008,10,01,22,01,11.80
2008,10,01,22,02,11.80
2008,10,01,22,03,11.80
2008,10,01,22,04,11.70
2008,10,01,22,05,11.70
2008,10,01,22,06,11.70
2008,10,01,22,07,11.60
2008,10,01,22,08,11.60
2008,10,01,22,09,11.60
2008,10,01,22,10,11.60
2008,10,01,22,11,11.60
2008,10,01,22,12,11.50
2008,10,01,22,13,11.50
2008,10,01,22,14,11.40
2008,10,01,22,15,11.40
2008,10,01,22,16,11.40
2008,10,01,22,17,11.40
2008,10,01,22,18,11.40
2008,10,01,22,19,11.40
2008,10,01,22,20,11.40
2008,10,01,22,21,11.40
2008,10,01,22,22,11.30
2008,10,01,22,23,11.30
2008,10,01,22,24,11.30
2008,10,01,22,25,11.30
2008,10,01,22,26,11.30
2008,10,01,22,27,11.30
2008,10,01,22,28,11.30
2008,10,01,22,29,11.30
2008,10,01,22,30,11.20
2008,10,01,22,31,11.20
2008,10,01,22,32,11.20
2008,10,01,22,33,11.20
2008,10,01,22,34,11.20
2008,10,01,22,35,11.20
2008,10,01,22,36,11.20
2008,10,01,22,37,11.10
2008,10,01,22,38,11.10
2008,10,01,22,39,11.10
2008,10,01,22,40,11.10
2008,10,01,22,41,11.10
2008,10,01,22,42,11.10
2008,10,01,22,43,11.10
2008,10,01,22,44,11.10
2008,10,01,22,45,11.10
2008,10,01,22,46,11.00
2008,10,01,22,47,11.00
2008,10,01,22,48,11.00
2008,10,01,22,49,11.00
2008,10,01,22,50,11.00
2008,10,01,22,51,11.00
2008,10,01,22,52,11.00
2008,10,01,22,53,11.00
2008,10,01,22,54,11.00
2008,10,01,22,55,10.90
2008,10,01,22,56,10.90
2008,10,01,22,57,11.00
2008,10,01,22,58,10.90
2008,10,01,22,59,10.90
2008,10,01,23,00,10.90
2008,10,01,23,01,11.00
2008,10,01,23,02,11.00
2008,10,01,23,03,11.00
2008,10,01,23,04,11.00
2008,10,01,23,05,11.00
2008,10,01,23,06,11.00
2008,10,01,23,07,11.00
2008,10,01,23,08,11.00
2008,10,01,23,09,11.00
2008,10,01,23,10,11.00
2008,10,01,23,11,10.90
2008,10,01,23,12,10.90
2008,10,01,23,13,10.90
2008,10,01,23,14,10.90
2008,10,01,23,15,10.90
2008,10,01,23,16,10.90
2008,10,01,23,17,10.90
2008,10,01,23,18,10.90
2008,10,01,23,19,10.90
2008,10,01,23,20,10.90
2008,10,01,23,21,10.90
2008,10,01,23,22,10.90
2008,10,01,23,23,10.90
2008,10,01,23,24,10.90
2008,10,01,23,25,10.90
2008,10,01,23,26,10.90
2008,10,01,23,27,10.90
2008,10,01,23,28,10.90
2008,10,01,23,29,10.90
2008,10,01,23,30,10.90
2008,10,01,23,31,10.90
2008,10,01,23,32,10.90
2008,10,01,23,33,10.90
2008,10,01,23,34,10.90
2008,10,01,23,35,10.90
2008,10,01,23,36,10.90
2008,10,01,23,37,10.90
2008,10,01,23,38,10.90
2008,10,01,23,39,10.90
2008,10,01,23,40,10.90
2008,10,01,23,41,10.90
2008,10,01,23,42,10.90
2008,10,01,23,43,10.90
2008,10,01,23,44,10.90
2008,10,01,23,45,10.90
2008,10,01,23,46,10.90
2008,10,01,23,47,11.00
2008,10,01,23,48,11.00
2008,10,01,23,49,10.90
2008,10,01,23,50,10.90
2008,10,01,23,51,10.90
2008,10,01,23,52,10.90
2008,10,01,23,53,10.90
2008,10,01,23,54,10.90
2008,10,01,23,55,10.90
2008,10,01,23,56,10.90
2008,10,01,23,57,10.90
2008,10,01,23,58,10.90
2008,10,01,23,59,10.90
